Syracuse, NY

7:28 PM EST on December 03, 2016 (GMT -0500)
Syracuse Hancock International

Weather History for KSYR - July, 2012

Change the Weather History Date:

Tuesday, July 10, 2012

  Actual Average Record
Temperature  
Mean Temperature 72 °F 71 °F  
Max Temperature 85 °F 82 °F 101 °F (1936)
Min Temperature 59 °F 61 °F 46 °F (1942)
Degree Days  
Heating Degree Days 0 0  
Month to date heating degree days 0 2  
Since 1 June heating degree days 43 63  
Since 1 July heating degree days 0 2  
Cooling Degree Days 7 7  
Month to date cooling degree days 106 62  
Year to date cooling degree days 365 205  
Since 1 June cooling degree days 270 175  
Growing Degree Days 22 (Base 50)    
Moisture  
Dew Point 54 °F    
Average Humidity 62    
Maximum Humidity 87    
Minimum Humidity 36    
Precipitation  
Precipitation T in 0.13 in 1.94 in (1919)
Month to date precipitation 0.22 1.21  
Year to date precipitation 15.14 18.45  
Snow  
Snow 0.00 in 0.00 in 0.00 in (2002)
Month to date snowfall 0.0 0.0  
Since 1 June snowfall 0.0 0.0  
Since 1 July snowfall 0.0 0.0  
Snow Depth 0.00 in    
Sea Level Pressure  
Sea Level Pressure 30.03 in    
Wind  
Wind Speed 4 mph (NNE)    
Max Wind Speed 15 mph    
Max Gust Speed 20 mph    
Visibility 10 miles    
Events      
T = Trace of Precipitation, MM = Missing Value Source: NWS Daily Summary

Daily Weather History Graph

Daily Weather History Graph

Search for Another Location

Airport or City:

Trip Planner

Search our weather history database for the weather conditions in past years. The results will help you decide how hot, cold, wet, or windy it might be!

Date:

Astronomy

Jul. 10, 2012 Rise Set
Actual Time 5:34 AM EDT 8:44 PM EDT
Civil Twilight 5:00 AM EDT 9:19 PM EDT
Nautical Twilight 4:15 AM EDT 10:03 PM EDT
Astronomical Twilight 3:21 AM EDT 10:56 PM EDT
Moon No Moon Rise 1:12 PM EDT (7/10)
Length of Visible Light 16h 18m
Length of Day
15h 09m
Waning Gibbous, 54% of the Moon is Illuminated
Jul 10
Waning Gibbous
Jul 10
Last Quarter
Jul 19
New
Jul 26
First Quarter
Aug 1
Full

Hourly Weather History & Observations

Time (EDT) Temp. Heat Index Dew Point Humidity Pressure Visibility Wind Dir Wind Speed Gust Speed Precip Events Conditions
12:54 AM 61.0 °F - 51.1 °F 70% 30.00 in 10.0 mi ESE 4.6 mph - N/A   Scattered Clouds
1:54 AM 62.1 °F - 52.0 °F 70% 30.00 in 10.0 mi ESE 3.5 mph - N/A   Overcast
2:54 AM 62.1 °F - 52.0 °F 70% 30.00 in 10.0 mi Calm Calm - N/A   Overcast
3:54 AM 63.0 °F - 54.0 °F 72% 30.01 in 10.0 mi Calm Calm - 0.00 in   Light Drizzle
4:54 AM 61.0 °F - 54.0 °F 78% 30.01 in 10.0 mi Calm Calm - 0.00 in   Overcast
5:54 AM 59.0 °F - 55.0 °F 87% 30.04 in 10.0 mi Calm Calm - N/A   Mostly Cloudy
6:54 AM 62.1 °F - 55.9 °F 80% 30.03 in 10.0 mi SSE 9.2 mph - 0.00 in   Mostly Cloudy
7:54 AM 63.0 °F - 55.9 °F 78% 30.04 in 10.0 mi ESE 3.5 mph - N/A   Scattered Clouds
8:54 AM 70.0 °F - 55.9 °F 61% 30.05 in 10.0 mi East 4.6 mph - N/A   Scattered Clouds
9:54 AM 75.0 °F - 55.9 °F 51% 30.04 in 10.0 mi Variable 3.5 mph - N/A   Partly Cloudy
10:54 AM 78.1 °F - 55.0 °F 45% 30.04 in 10.0 mi Calm Calm - N/A   Scattered Clouds
11:54 AM 80.1 °F 80.0 °F 54.0 °F 40% 30.04 in 10.0 mi East 5.8 mph - N/A   Scattered Clouds
12:54 PM 79.0 °F - 54.0 °F 42% 30.03 in 10.0 mi Variable 3.5 mph - N/A   Mostly Cloudy
1:54 PM 81.0 °F 80.5 °F 54.0 °F 39% 30.02 in 10.0 mi Variable 4.6 mph - N/A   Mostly Cloudy
2:54 PM 82.0 °F 81.4 °F 55.0 °F 39% 30.01 in 10.0 mi NW 11.5 mph 18.4 mph N/A   Scattered Clouds
3:54 PM 84.0 °F 82.9 °F 55.0 °F 37% 30.01 in 10.0 mi NNW 12.7 mph 19.6 mph N/A   Scattered Clouds
4:54 PM 84.0 °F 82.9 °F 55.0 °F 37% 30.01 in 10.0 mi North 8.1 mph - N/A   Scattered Clouds
5:54 PM 82.0 °F 81.3 °F 54.0 °F 38% 30.01 in 10.0 mi NW 10.4 mph - N/A   Scattered Clouds
6:54 PM 81.0 °F - 52.0 °F 36% 30.02 in 10.0 mi NW 9.2 mph - N/A   Partly Cloudy
7:54 PM 77.0 °F - 52.0 °F 42% 30.04 in 10.0 mi WNW 6.9 mph - N/A   Scattered Clouds
8:54 PM 73.0 °F - 53.1 °F 49% 30.05 in 10.0 mi NNW 3.5 mph - N/A   Scattered Clouds
9:54 PM 68.0 °F - 55.0 °F 63% 30.07 in 10.0 mi Calm Calm - N/A   Partly Cloudy
10:54 PM 66.0 °F - 55.0 °F 68% 30.09 in 10.0 mi Calm Calm - N/A   Partly Cloudy
11:54 PM 63.0 °F - 55.9 °F 78% 30.09 in 10.0 mi Calm Calm - N/A   Clear